カタログに戻る

STARLINK-32598

運用中通信VLEO
NORAD 62046·PAYLOAD·🇺🇸 United States

打ち上げ Nov 21, 2024 から Cape Canaveral Space Force Station

Loading…

次のパス (今後24時間)

TLE

最新Source: CelesTrak SupGP

元期: Sep 15, 2026, 02:27 UTC

1 62046C 24216Q   26258.10256944 -.00008289  00000+0 -30027-3 0  2588
2 62046  43.0004 266.1404 0001319 264.6582 302.5402 15.27577578    12

AllMySatでSTARLINK-32598をリアルタイム追跡

Download on the App Store